Theta_e
336 336 335 337 337 337 336 335 337 337 336 334 333 333 334 336 337 337 337 337 337 337 338 338 337 337 337 341 342 339 337 339 336 338 338 338 338 336 335 335 337 334
334 335 333 335 335 337 338 340 339 337 337 337 335 335 336 335 336 334 336 337 339 338 336 336 337 337 340 339 340 339 338 337 334 338 339 339 338 337 335 334 337 338
333 333 334 335 336 337 338 339 337 336 336 336 336 334 335 336 335 334 336 337 333 334 337 339 335 339 339 339 340 337 336 338 335 339 339 338 337 336 335 337 337 338
331 333 334 334 335 335 337 336 337 337 337 336 334 335 335 335 335 334 334 334 335 336 336 338 339 340 339 339 337 338 336 338 338 339 338 338 337 336 334 335 335 338
328 330 333 334 334 335 334 332 332 334 334 333 335 337 335 335 334 334 335 335 337 336 336 338 337 338 341 339 335 333 335 337 337 337 336 336 336 335 337 338 338 337
327 328 331 332 334 333 333 331 332 334 333 334 335 336 336 335 334 334 335 336 336 337 337 337 338 340 335 335 335 336 336 333 335 336 335 334 335 337 336 337 336 335
326 329 330 332 333 333 331 333 333 333 334 335 335 335 336 335 335 335 335 336 336 336 338 337 338 336 334 336 336 337 336 336 336 337 335 334 336 337 336 335 334 333
325 327 329 329 329 331 330 331 332 333 333 335 335 335 336 335 336 336 335 336 335 333 333 335 335 334 339 338 336 335 335 335 337 337 335 334 336 335 335 334 336 329
323 324 324 326 329 330 329 329 330 332 333 333 334 335 337 337 336 336 335 335 334 333 333 335 332 333 334 335 335 334 334 337 338 338 337 337 334 334 333 333 332 330
321 322 323 323 325 328 329 330 330 331 332 332 333 335 334 337 337 337 336 335 333 334 335 334 332 331 333 333 333 335 336 336 336 338 339 337 336 335 331 332 332 333
320 319 319 319 320 324 327 329 330 330 331 331 331 332 335 336 336 337 336 335 335 334 334 333 333 331 331 331 331 334 335 335 336 336 338 336 335 333 332 332 333 334
318 318 317 316 317 320 322 325 327 329 330 331 331 331 333 334 331 335 335 335 334 333 334 334 334 332 331 329 332 333 336 335 336 336 334 335 332 333 332 333 333 334
317 317 316 316 317 318 321 323 326 328 329 330 331 331 332 332 332 332 334 333 334 334 334 334 334 333 332 330 330 332 336 335 336 336 332 330 331 332 333 335 335 335
316 317 316 316 317 318 320 323 325 326 328 328 330 330 330 330 331 331 333 333 333 334 334 334 333 332 332 331 330 331 335 336 336 336 335 333 333 333 334 335 337 336
315 316 316 316 316 316 317 319 322 324 326 327 328 329 330 331 331 330 330 330 333 334 335 334 333 333 332 331 330 331 333 336 335 334 335 334 334 334 335 335 336 336
314 314 314 315 315 314 315 317 319 323 326 327 328 328 329 330 332 332 330 330 330 332 334 333 333 334 328 316 318 331 333 334 336 336 335 335 336 335 334 335 334 334
313 312 313 313 314 314 314 315 316 319 322 325 327 327 328 329 329 328 329 328 329 329 331 333 334 333 313 308 309 312 329 335 335 335 336 335 334 334 332 333 334 333
312 312 312 311 312 312 312 313 314 315 314 315 319 325 328 328 328 327 327 327 328 329 331 331 332 313 303 305 305 307 314 333 334 334 333 333 332 331 331 332 333 334
311 310 310 310 310 311 311 311 311 311 311 312 312 314 321 324 326 326 326 327 329 326 326 328 327 301 300 301 301 302 304 317 332 331 330 330 331 332 330 328 329 329
311 310 309 309 310 310 310 309 309 309 309 309 309 309 309 312 314 316 317 319 321 324 325 326 318 297 293 295 298 299 300 308 332 331 330 329 329 329 328 329 330 329
310 310 309 308 309 309 309 308 307 307 307 308 307 305 305 305 306 308 310 312 313 315 317 314 307 293 293 293 294 296 297 301 328 330 330 330 331 331 331 330 331 330
309 309 309 308 308 308 307 306 306 306 305 306 307 306 304 304 305 305 305 306 309 312 313 310 304 292 293 294 293 296 296 322 329 332 331 332 332 333 332 333 332 331
308 308 308 308 307 307 306 305 305 305 305 305 304 304 303 303 302 301 302 303 303 305 306 305 302 294 292 294 295 295 303 325 329 328 329 330 331 331 330 331 332 330
307 307 307 307 306 306 305 305 305 305 305 305 303 302 302 302 301 301 301 300 300 300 301 301 301 296 292 292 292 292 299 325 325 326 327 327 327 327 327 323 313 305
306 306 306 306 306 306 305 304 304 304 305 304 303 302 301 301 301 300 300 301 300 298 299 299 299 297 292 292 293 293 303 322 322 323 323 322 321 318 318 316 313 306
307 305 304 304 306 306 306 305 305 304 304 303 303 302 302 302 301 301 300 299 299 297 297 297 297 297 293 291 293 295 296 314 317 319 318 318 317 315 313 311 310 308
Wind_Speed
8 7 6 5 6 7 8 9 8 8 9 8 7 7 7 7 8 9 10 8 9 9 9 9 10 9 10 9 9 9 10 6 9 10 10 11 10 11 10 11 10 9
8 7 6 7 7 7 7 8 9 8 8 8 8 6 6 7 6 8 8 9 9 8 8 11 11 12 10 9 9 10 8 10 10 8 10 12 10 11 9 11 11 9
8 7 7 8 8 7 7 8 8 8 8 7 8 10 9 9 9 9 7 7 9 11 12 9 10 11 11 11 9 4 8 8 11 10 9 11 10 9 8 7 8 10
10 11 8 7 7 8 7 7 7 7 7 6 8 10 10 9 10 8 8 9 9 8 10 10 10 11 12 12 10 8 12 10 10 10 9 9 10 9 10 10 10 8
9 11 10 7 7 7 7 7 7 6 5 6 8 9 7 8 9 8 7 9 11 13 13 10 10 12 9 6 5 10 10 9 9 9 9 9 9 8 8 8 9 9
9 8 9 8 8 7 6 7 8 7 7 8 8 8 9 9 9 9 10 10 11 11 13 12 11 8 6 10 10 7 6 3 8 9 10 10 9 10 8 10 8 10
10 9 8 9 8 7 7 7 6 6 7 7 6 8 8 9 10 10 10 10 11 10 9 9 7 10 11 12 12 10 8 10 9 10 10 10 9 9 11 9 11 9
10 9 9 8 7 6 7 7 7 6 7 7 7 8 9 10 10 9 10 10 8 8 11 10 6 10 8 9 9 6 8 9 9 11 11 11 10 10 11 8 7 7
11 9 10 12 9 6 6 6 6 7 7 7 7 8 8 9 10 10 9 9 8 7 10 6 8 8 8 6 7 12 13 10 10 11 11 10 11 9 8 7 9 12
10 10 11 10 10 8 8 7 6 7 7 7 8 8 9 9 10 10 10 8 8 8 6 5 6 7 8 10 13 12 11 11 10 11 9 9 10 9 9 9 11 9
11 10 10 9 9 9 10 9 8 7 6 7 7 7 9 9 9 10 10 10 10 11 12 10 7 7 7 8 10 9 10 10 10 10 9 8 9 9 8 11 11 10
12 11 11 11 9 8 9 9 8 7 7 6 7 8 9 9 10 9 9 10 11 11 11 10 6 5 5 6 9 13 9 9 10 8 6 6 8 8 10 12 9 10
13 12 11 11 10 10 8 8 8 7 7 8 6 8 8 9 9 11 9 10 11 11 11 11 8 7 7 5 4 10 11 11 11 11 11 7 8 10 12 10 10 10
13 12 11 12 11 10 10 9 8 8 8 7 8 8 8 8 9 8 8 9 10 11 10 10 9 8 8 7 7 8 11 10 10 10 10 12 12 12 10 10 10 10
13 12 12 12 12 11 11 10 10 9 7 7 7 8 7 8 8 8 8 12 12 10 10 9 9 9 8 7 8 9 11 10 11 10 10 9 10 10 10 10 10 10
13 13 13 13 13 13 12 11 11 10 8 7 8 8 8 9 8 7 9 10 11 10 10 9 9 6 7 13 12 10 12 10 9 9 10 10 9 10 10 10 11 10
14 14 14 14 13 13 12 13 12 11 11 10 8 7 7 8 8 9 7 8 8 9 10 8 7 8 14 17 18 14 10 9 9 9 9 10 9 9 10 10 10 11
14 15 14 14 14 14 13 12 12 11 10 11 11 11 10 7 7 8 9 8 8 9 7 6 5 7 7 6 12 10 8 8 9 9 9 9 9 9 6 8 9 8
14 15 15 15 15 14 13 12 13 12 12 11 11 11 11 10 7 8 9 9 6 6 6 6 4 5 5 12 13 12 9 8 9 9 9 9 9 10 11 10 8 6
14 14 14 15 15 14 14 13 13 13 13 11 10 10 10 10 11 11 9 6 4 4 7 2 4 6 8 8 10 10 10 7 9 8 8 9 10 10 9 9 9 9
14 14 14 15 15 14 14 14 13 13 13 11 10 10 9 9 9 9 8 7 6 5 4 5 5 10 8 6 10 10 9 7 9 7 6 7 8 8 8 8 8 7
14 14 14 14 15 14 15 14 14 13 13 11 11 10 9 9 9 8 9 8 8 6 5 6 6 12 8 8 9 12 10 9 9 6 7 7 7 6 6 6 7 7
13 14 14 14 14 15 15 14 14 13 12 11 11 11 11 11 10 9 8 8 10 9 8 6 8 11 12 12 10 12 7 8 7 6 6 7 6 6 5 5 5 6
13 13 13 14 14 14 14 14 13 12 12 11 11 11 11 11 10 11 11 11 11 10 9 7 6 11 16 14 11 9 11 4 6 6 7 6 6 5 4 5 9 18
12 12 12 13 14 14 13 13 13 11 11 11 10 10 11 10 11 11 12 13 13 11 14 10 7 10 17 16 13 14 11 1 3 3 5 6 6 6 6 6 7 10
12 12 11 12 13 13 12 12 11 11 12 11 11 10 11 11 11 12 14 13 13 13 10 9 9 9 14 17 13 14 15 6 6 4 3 5 5 6 6 7 7 7
Wind_Direction
299 291 277 241 227 219 199 204 212 201 198 199 200 201 213 218 209 208 214 217 226 221 223 216 202 209 214 205 201 206 201 173 212 197 195 196 202 202 201 201 206 216
290 286 279 279 259 229 217 209 211 219 216 213 216 222 219 207 192 202 216 225 227 223 225 226 213 210 204 203 205 204 214 178 204 203 192 197 202 204 202 198 204 211
301 283 273 255 259 252 237 230 221 222 224 214 210 219 218 208 205 201 211 227 235 229 225 218 222 216 207 206 200 196 241 183 206 187 195 195 205 190 213 188 220 204
321 307 277 272 275 273 258 249 236 235 233 226 225 222 218 209 202 194 194 201 223 241 236 221 217 217 210 208 196 187 216 200 194 192 191 200 200 208 199 193 206 191
322 314 303 279 268 269 279 277 269 260 248 243 234 229 221 221 210 204 206 213 217 221 226 219 213 221 212 229 172 201 215 211 190 194 195 198 200 202 206 196 198 207
320 316 313 299 281 270 267 272 272 264 251 241 240 234 231 229 222 214 208 213 220 223 227 219 214 216 196 208 211 215 203 224 213 196 198 204 200 202 206 204 202 200
328 321 315 309 303 290 281 279 286 283 271 259 247 239 236 236 229 220 218 222 224 230 235 234 214 220 206 206 203 195 194 206 200 203 209 204 206 199 212 207 202 199
335 334 329 318 312 307 307 308 301 294 286 269 255 252 242 241 233 222 223 225 234 238 236 223 206 227 241 222 206 223 205 201 199 199 207 206 201 204 211 213 172 169
339 348 350 337 333 325 319 314 313 302 286 275 265 257 247 246 238 226 221 222 216 223 232 202 204 240 226 259 255 204 206 199 204 201 198 203 201 200 216 205 217 194
346 346 350 350 341 336 329 320 308 297 292 290 285 274 262 248 242 233 224 212 211 213 212 203 194 197 227 218 223 213 206 203 203 199 194 195 200 189 207 223 218 215
348 349 347 342 337 335 331 326 318 307 299 284 274 269 269 263 250 237 232 219 212 220 223 217 203 208 200 204 238 243 219 212 203 203 194 191 195 204 210 226 210 212
349 348 347 344 336 332 330 323 309 299 292 283 274 265 264 258 252 247 234 227 223 222 222 215 198 204 202 202 226 230 220 217 213 185 201 196 213 222 217 220 214 209
353 351 348 346 341 334 323 313 307 297 292 284 272 261 265 267 247 249 239 235 229 223 219 215 203 199 209 214 228 255 222 216 214 203 185 211 223 221 219 214 214 210
355 352 349 346 342 336 331 324 315 306 299 288 277 267 254 256 265 256 251 244 239 231 221 216 205 202 212 213 206 228 241 220 218 218 206 190 206 210 210 208 210 213
355 352 348 348 348 344 342 336 321 307 293 289 283 269 260 255 251 248 254 248 235 225 219 211 205 204 206 205 208 213 230 220 220 214 212 211 204 209 209 207 207 214
358 356 351 351 351 349 349 341 334 320 303 297 294 288 278 267 260 248 241 252 253 229 218 218 217 211 208 198 217 208 216 214 211 211 209 206 202 207 207 206 211 210
2 357 355 356 352 352 351 349 345 342 336 325 309 294 279 271 266 264 256 241 252 267 240 223 219 207 202 192 213 227 218 212 210 206 205 203 198 204 206 202 208 210
3 360 359 358 356 354 355 352 350 351 350 345 338 323 308 298 276 253 247 246 240 234 225 238 246 82 123 228 238 211 215 222 214 213 208 208 203 194 205 210 198 198
4 1 1 2 1 0 358 358 356 356 356 358 354 347 340 330 303 274 255 248 224 196 230 248 275 45 204 204 218 220 205 229 219 216 213 210 203 205 198 200 195 188
9 6 6 4 4 4 4 5 4 4 2 1 1 2 4 5 7 8 12 14 329 261 214 147 82 15 359 318 261 220 206 223 227 213 216 210 210 207 205 201 195 192
8 10 10 9 8 8 8 9 9 7 6 6 8 10 11 15 10 12 12 9 14 10 37 56 35 11 5 332 286 244 203 226 225 214 209 211 209 207 207 205 199 197
7 10 12 12 12 12 12 11 11 12 10 9 12 15 17 14 21 20 18 16 17 34 43 44 27 14 22 4 275 241 192 212 205 184 190 185 185 182 187 187 189 191
7 9 13 14 14 14 14 13 12 13 15 13 16 21 22 23 23 24 19 20 23 22 26 29 26 10 33 23 309 278 225 214 172 177 171 174 165 160 157 162 171 190
13 11 14 17 18 17 16 16 15 15 20 20 23 22 24 24 24 31 35 37 31 27 23 20 8 22 36 37 351 337 297 247 155 161 156 150 137 124 117 80 37 25
18 15 14 18 23 23 21 19 17 19 21 28 29 29 31 31 32 34 38 41 36 25 17 20 12 16 32 33 12 2 327 17 69 121 144 131 118 99 87 91 61 44
27 24 20 17 24 30 29 29 28 26 28 31 34 36 36 36 38 39 40 38 36 34 19 5 26 20 23 33 30 23 352 12 58 62 84 108 109 107 100 77 76 63